Time,TemperatureF,DewpointF,PressureIn,WindDirection,WindDirectionDegrees,WindSpeedMPH,WindSpeedGustMPH,Humidity,HourlyPrecipIn,Conditions,Clouds,dailyrainin,SoftwareType,DateUTC
2013-02-25 00:00:00,27.8,25.2,30.11,NNE,15,5.0,6.0,90,0.00,,,0.00,Wunderground v.1.15,2013-02-25 06:00:00,
2013-02-25 00:10:00,27.6,24.8,30.11,North,358,7.0,7.0,89,0.00,,,0.00,Wunderground v.1.15,2013-02-25 06:10:00,
2013-02-25 00:15:00,27.6,25.1,30.11,NNE,18,6.0,7.0,90,0.00,,,0.00,Wunderground v.1.15,2013-02-25 06:15:00,
2013-02-25 00:25:00,27.4,24.9,30.12,NNW,335,5.0,6.0,90,0.00,,,0.00,Wunderground v.1.15,2013-02-25 06:25:00,
2013-02-25 00:35:00,27.3,24.5,30.12,NW,325,6.0,6.0,89,0.00,,,0.00,Wunderground v.1.15,2013-02-25 06:35:00,
2013-02-25 00:45:00,27.3,24.8,30.12,North,350,5.0,5.0,90,0.00,,,0.00,Wunderground v.1.15,2013-02-25 06:45:00,
2013-02-25 00:55:00,27.1,24.3,30.12,NNE,20,6.0,6.0,89,0.00,,,0.00,Wunderground v.1.15,2013-02-25 06:55:00,
2013-02-25 01:00:00,27.1,24.3,30.12,NNE,13,5.0,8.0,89,0.00,,,0.00,Wunderground v.1.15,2013-02-25 07:00:00,
2013-02-25 01:10:00,27.1,24.3,30.12,NNW,327,5.0,5.0,89,0.00,,,0.00,Wunderground v.1.15,2013-02-25 07:10:00,
2013-02-25 01:15:00,27.1,24.3,30.12,NNW,347,5.0,5.0,89,0.00,,,0.00,Wunderground v.1.15,2013-02-25 07:15:00,
2013-02-25 01:20:00,27.1,24.3,30.12,NNW,347,5.0,5.0,89,0.00,,,0.00,Wunderground v.1.15,2013-02-25 07:20:00,
2013-02-25 01:30:00,27.1,24.6,30.12,NW,321,5.0,6.0,90,0.00,,,0.00,Wunderground v.1.15,2013-02-25 07:30:00,
2013-02-25 01:35:00,27.1,24.6,30.12,NNE,18,5.0,6.0,90,0.00,,,0.00,Wunderground v.1.15,2013-02-25 07:35:00,
2013-02-25 01:45:00,27.1,24.6,30.12,NNE,12,4.0,4.0,90,0.00,,,0.00,Wunderground v.1.15,2013-02-25 07:45:00,
2013-02-25 01:55:00,27.0,24.5,30.12,NNE,26,5.0,6.0,90,0.00,,,0.00,Wunderground v.1.15,2013-02-25 07:55:00,
2013-02-25 02:00:00,26.9,24.1,30.11,North,4,5.0,7.0,89,0.00,,,0.00,Wunderground v.1.15,2013-02-25 08:00:00,
2013-02-25 02:10:00,26.7,23.9,30.12,NNE,16,6.0,6.0,89,0.00,,,0.00,Wunderground v.1.15,2013-02-25 08:10:00,
2013-02-25 02:20:00,26.7,23.9,30.12,North,10,4.0,4.0,89,0.00,,,0.00,Wunderground v.1.15,2013-02-25 08:20:00,
2013-02-25 02:30:00,26.6,23.8,30.11,NNW,340,4.0,4.0,89,0.00,,,0.00,Wunderground v.1.15,2013-02-25 08:30:00,
2013-02-25 02:40:00,26.6,23.8,30.10,NNE,26,6.0,6.0,89,0.00,,,0.00,Wunderground v.1.15,2013-02-25 08:40:00,
2013-02-25 02:50:00,26.4,23.9,30.10,North,10,6.0,6.0,90,0.00,,,0.00,Wunderground v.1.15,2013-02-25 08:50:00,
2013-02-25 03:00:00,26.3,23.8,30.10,NNE,16,6.0,6.0,90,0.00,,,0.00,Wunderground v.1.15,2013-02-25 09:00:00,
2013-02-25 03:05:00,26.3,23.8,30.12,North,1,6.0,6.0,90,0.00,,,0.00,Wunderground v.1.15,2013-02-25 09:05:00,
2013-02-25 03:15:00,26.3,23.8,30.12,North,359,4.0,5.0,90,0.00,,,0.00,Wunderground v.1.15,2013-02-25 09:15:00,
2013-02-25 03:20:00,26.3,23.5,30.12,NNW,342,4.0,4.0,89,0.00,,,0.00,Wunderground v.1.15,2013-02-25 09:20:00,
2013-02-25 03:30:00,26.2,23.4,30.11,NNE,12,6.0,7.0,89,0.00,,,0.00,Wunderground v.1.15,2013-02-25 09:30:00,
2013-02-25 03:40:00,26.1,23.3,30.12,North,8,7.0,7.0,89,0.00,,,0.00,Wunderground v.1.15,2013-02-25 09:40:00,
2013-02-25 03:50:00,25.9,23.1,30.11,NNE,13,8.0,8.0,89,0.00,,,0.00,Wunderground v.1.15,2013-02-25 09:50:00,
2013-02-25 04:00:00,25.7,22.9,30.10,NNE,20,7.0,8.0,89,0.00,,,0.00,Wunderground v.1.15,2013-02-25 10:00:00,
2013-02-25 04:10:00,25.6,23.1,30.11,North,358,7.0,7.0,90,0.00,,,0.00,Wunderground v.1.15,2013-02-25 10:10:00,
2013-02-25 04:20:00,25.5,23.0,30.11,North,1,5.0,5.0,90,0.00,,,0.00,Wunderground v.1.15,2013-02-25 10:20:00,
2013-02-25 04:30:00,25.4,22.9,30.11,NNW,347,6.0,6.0,90,0.00,,,0.00,Wunderground v.1.15,2013-02-25 10:30:00,
2013-02-25 04:40:00,25.3,22.8,30.11,NNE,25,7.0,9.0,90,0.00,,,0.00,Wunderground v.1.15,2013-02-25 10:40:00,
2013-02-25 04:50:00,25.3,22.8,30.11,NNE,16,6.0,6.0,90,0.00,,,0.00,Wunderground v.1.15,2013-02-25 10:50:00,
2013-02-25 05:00:00,25.4,22.9,30.12,North,352,4.0,4.0,90,0.00,,,0.00,Wunderground v.1.15,2013-02-25 11:00:00,
2013-02-25 05:10:00,25.3,22.8,30.11,NNE,12,4.0,4.0,90,0.00,,,0.00,Wunderground v.1.15,2013-02-25 11:10:00,
2013-02-25 05:15:00,25.3,22.8,30.11,NNE,19,4.0,6.0,90,0.00,,,0.00,Wunderground v.1.15,2013-02-25 11:15:00,
2013-02-25 05:25:00,25.3,22.8,30.11,NNW,335,6.0,9.0,90,0.00,,,0.00,Wunderground v.1.15,2013-02-25 11:25:00,
2013-02-25 05:30:00,25.3,22.8,30.11,NNW,333,5.0,5.0,90,0.00,,,0.00,Wunderground v.1.15,2013-02-25 11:30:00,
2013-02-25 05:40:00,25.3,22.8,30.11,NNE,26,5.0,5.0,90,0.00,,,0.00,Wunderground v.1.15,2013-02-25 11:40:00,
2013-02-25 05:50:00,25.4,22.9,30.10,NNE,20,6.0,6.0,90,0.00,,,0.00,Wunderground v.1.15,2013-02-25 11:50:00,
2013-02-25 06:00:00,25.4,22.9,30.11,NNW,336,6.0,6.0,90,0.00,,,0.00,Wunderground v.1.15,2013-02-25 12:00:00,
2013-02-25 06:10:00,25.4,22.9,30.11,North,352,5.0,5.0,90,0.00,,,0.00,Wunderground v.1.15,2013-02-25 12:10:00,
2013-02-25 06:15:00,25.4,22.9,30.11,North,354,5.0,5.0,90,0.00,,,0.00,Wunderground v.1.15,2013-02-25 12:15:00,
2013-02-25 06:25:00,25.4,22.9,30.11,North,10,4.0,6.0,90,0.00,,,0.00,Wunderground v.1.15,2013-02-25 12:25:00,
2013-02-25 06:35:00,25.4,22.9,30.10,NNE,12,5.0,5.0,90,0.00,,,0.00,Wunderground v.1.15,2013-02-25 12:35:00,
2013-02-25 06:50:00,25.3,22.8,30.10,North,358,6.0,6.0,90,0.00,,,0.00,Wunderground v.1.15,2013-02-25 12:50:00,
2013-02-25 07:00:00,25.3,22.8,30.10,NNW,346,4.0,5.0,90,0.00,,,0.00,Wunderground v.1.15,2013-02-25 13:00:00,
2013-02-25 07:10:00,25.2,22.7,30.10,North,3,7.0,10.0,90,0.00,,,0.00,Wunderground v.1.15,2013-02-25 13:10:00,
2013-02-25 07:20:00,25.3,22.5,30.10,NNE,25,7.0,8.0,89,0.00,,,0.00,Wunderground v.1.15,2013-02-25 13:20:00,
2013-02-25 07:30:00,25.3,22.5,30.10,NNW,335,8.0,8.0,89,0.00,,,0.00,Wunderground v.1.15,2013-02-25 13:30:00,
2013-02-25 07:40:00,25.3,22.5,30.11,NNE,25,8.0,8.0,89,0.00,,,0.00,Wunderground v.1.15,2013-02-25 13:40:00,
2013-02-25 07:50:00,25.2,22.4,30.11,NE,36,7.0,7.0,89,0.00,,,0.00,Wunderground v.1.15,2013-02-25 13:50:00,
2013-02-25 08:00:00,25.0,22.2,30.12,NE,37,7.0,7.0,89,0.00,,,0.00,Wunderground v.1.15,2013-02-25 14:00:00,
2013-02-25 08:10:00,24.8,22.0,30.12,NNE,18,8.0,8.0,89,0.00,,,0.00,Wunderground v.1.15,2013-02-25 14:10:00,
2013-02-25 08:20:00,25.1,22.6,30.12,NNE,30,5.0,7.0,90,0.00,,,0.00,Wunderground v.1.15,2013-02-25 14:20:00,
2013-02-25 08:30:00,25.3,22.8,30.13,NNE,13,5.0,5.0,90,0.00,,,0.00,Wunderground v.1.15,2013-02-25 14:30:00,
2013-02-25 08:40:00,25.4,22.6,30.13,North,1,6.0,6.0,89,0.00,,,0.00,Wunderground v.1.15,2013-02-25 14:40:00,
2013-02-25 08:50:00,25.6,22.8,30.12,NNE,27,5.0,7.0,89,0.00,,,0.00,Wunderground v.1.15,2013-02-25 14:50:00,
2013-02-25 08:55:00,25.6,22.8,30.13,NNE,26,7.0,9.0,89,0.00,,,0.00,Wunderground v.1.15,2013-02-25 14:55:00,
2013-02-25 09:00:00,25.7,22.9,30.13,NNE,23,7.0,9.0,89,0.00,,,0.00,Wunderground v.1.15,2013-02-25 15:00:00,
2013-02-25 09:10:00,25.9,23.1,30.12,NNW,333,6.0,6.0,89,0.00,,,0.00,Wunderground v.1.15,2013-02-25 15:10:00,
2013-02-25 09:20:00,26.2,23.1,30.12,North,6,8.0,8.0,88,0.00,,,0.00,Wunderground v.1.15,2013-02-25 15:20:00,
2013-02-25 09:30:00,26.6,23.5,30.12,NNE,25,5.0,6.0,88,0.00,,,0.00,Wunderground v.1.15,2013-02-25 15:30:00,
2013-02-25 09:35:00,26.6,23.3,30.12,NE,43,6.0,6.0,87,0.00,,,0.00,Wunderground v.1.15,2013-02-25 15:35:00,
2013-02-25 09:45:00,26.8,23.4,30.12,NNE,33,6.0,11.0,87,0.00,,,0.00,Wunderground v.1.15,2013-02-25 15:45:00,
2013-02-25 09:55:00,26.8,23.4,30.12,NNE,30,8.0,8.0,87,0.00,,,0.00,Wunderground v.1.15,2013-02-25 15:55:00,
2013-02-25 10:00:00,26.8,23.4,30.13,NNE,18,7.0,7.0,87,0.00,,,0.00,Wunderground v.1.15,2013-02-25 16:00:00,
2013-02-25 10:10:00,26.6,23.3,30.13,NE,43,7.0,7.0,87,0.00,,,0.00,Wunderground v.1.15,2013-02-25 16:10:00,
2013-02-25 10:20:00,26.2,23.1,30.12,NNE,29,8.0,8.0,88,0.00,,,0.00,Wunderground v.1.15,2013-02-25 16:20:00,
2013-02-25 10:30:00,26.5,23.4,30.12,North,8,8.0,8.0,88,0.00,,,0.00,Wunderground v.1.15,2013-02-25 16:30:00,
2013-02-25 10:40:00,26.9,23.8,30.11,NNE,33,8.0,8.0,88,0.00,,,0.00,Wunderground v.1.15,2013-02-25 16:40:00,
2013-02-25 10:50:00,27.6,24.5,30.11,NNE,26,8.0,8.0,88,0.00,,,0.00,Wunderground v.1.15,2013-02-25 16:50:00,
2013-02-25 11:00:00,27.7,24.3,30.12,ENE,66,8.0,8.0,87,0.00,,,0.00,Wunderground v.1.15,2013-02-25 17:00:00,
2013-02-25 11:05:00,27.7,24.3,30.12,NNW,344,8.0,8.0,87,0.00,,,0.00,Wunderground v.1.15,2013-02-25 17:05:00,
2013-02-25 11:15:00,28.0,24.6,30.12,NNE,23,7.0,8.0,87,0.00,,,0.00,Wunderground v.1.15,2013-02-25 17:15:00,
2013-02-25 11:20:00,28.0,24.9,30.11,NNE,23,6.0,6.0,88,0.00,,,0.00,Wunderground v.1.15,2013-02-25 17:20:00,
2013-02-25 11:25:00,28.2,24.8,30.11,NNE,15,6.0,6.0,87,0.00,,,0.00,Wunderground v.1.15,2013-02-25 17:25:00,
2013-02-25 11:35:00,28.6,24.9,30.10,NNE,23,8.0,9.0,86,0.00,,,0.00,Wunderground v.1.15,2013-02-25 17:35:00,
2013-02-25 11:40:00,28.9,25.2,30.10,NNE,23,9.0,9.0,86,0.00,,,0.00,Wunderground v.1.15,2013-02-25 17:40:00,
2013-02-25 11:50:00,29.6,25.6,30.10,NE,46,9.0,9.0,85,0.00,,,0.00,Wunderground v.1.15,2013-02-25 17:50:00,
2013-02-25 12:00:00,30.0,25.8,30.10,North,352,11.0,11.0,84,0.00,,,0.00,Wunderground v.1.15,2013-02-25 18:00:00,
2013-02-25 12:10:00,30.7,26.4,30.09,NNE,28,11.0,12.0,84,0.00,,,0.00,Wunderground v.1.15,2013-02-25 18:10:00,
2013-02-25 12:15:00,30.9,26.6,30.08,North,6,11.0,12.0,84,0.00,,,0.00,Wunderground v.1.15,2013-02-25 18:15:00,
2013-02-25 12:25:00,31.2,26.9,30.08,NNE,15,12.0,14.0,84,0.00,,,0.00,Wunderground v.1.15,2013-02-25 18:25:00,
2013-02-25 12:35:00,31.5,26.9,30.07,NNE,30,12.0,12.0,83,0.00,,,0.00,Wunderground v.1.15,2013-02-25 18:35:00,
2013-02-25 12:45:00,31.8,27.2,30.06,North,360,11.0,12.0,83,0.00,,,0.00,Wunderground v.1.15,2013-02-25 18:45:00,
2013-02-25 12:55:00,32.0,27.4,30.06,NNE,33,12.0,13.0,83,0.00,,,0.00,Wunderground v.1.15,2013-02-25 18:55:00,
2013-02-25 13:00:00,32.0,27.4,30.06,NNE,14,12.0,12.0,83,0.00,,,0.00,Wunderground v.1.15,2013-02-25 19:00:00,
2013-02-25 13:10:00,32.2,27.9,30.05,NNE,22,11.0,13.0,84,0.00,,,0.00,Wunderground v.1.15,2013-02-25 19:10:00,
2013-02-25 13:20:00,32.5,27.9,30.05,NNE,33,11.0,13.0,83,0.00,,,0.00,Wunderground v.1.15,2013-02-25 19:20:00,
2013-02-25 13:30:00,32.5,27.9,30.05,NNE,16,11.0,13.0,83,0.00,,,0.00,Wunderground v.1.15,2013-02-25 19:30:00,
2013-02-25 13:40:00,32.6,27.7,30.04,NNE,33,12.0,12.0,82,0.00,,,0.00,Wunderground v.1.15,2013-02-25 19:40:00,
2013-02-25 13:50:00,32.5,27.6,30.05,NNE,18,12.0,15.0,82,0.00,,,0.00,Wunderground v.1.15,2013-02-25 19:50:00,
2013-02-25 14:00:00,32.6,27.7,30.04,NNE,27,11.0,11.0,82,0.00,,,0.00,Wunderground v.1.15,2013-02-25 20:00:00,
2013-02-25 14:10:00,32.6,27.4,30.04,NE,36,10.0,11.0,81,0.00,,,0.00,Wunderground v.1.15,2013-02-25 20:10:00,
2013-02-25 14:20:00,32.7,27.5,30.04,NE,46,11.0,11.0,81,0.00,,,0.00,Wunderground v.1.15,2013-02-25 20:20:00,
2013-02-25 14:30:00,32.8,27.6,30.04,NNW,348,11.0,11.0,81,0.00,,,0.00,Wunderground v.1.15,2013-02-25 20:30:00,
2013-02-25 14:40:00,32.9,27.7,30.04,NE,37,11.0,14.0,81,0.00,,,0.00,Wunderground v.1.15,2013-02-25 20:40:00,
2013-02-25 14:50:00,32.9,28.0,30.04,NE,43,10.0,10.0,82,0.00,,,0.00,Wunderground v.1.15,2013-02-25 20:50:00,
2013-02-25 15:00:00,32.7,27.5,30.03,North,4,10.0,10.0,81,0.00,,,0.00,Wunderground v.1.15,2013-02-25 21:00:00,
2013-02-25 15:10:00,32.7,27.5,30.03,NNE,24,10.0,10.0,81,0.00,,,0.00,Wunderground v.1.15,2013-02-25 21:10:00,
2013-02-25 15:20:00,32.4,27.2,30.03,North,355,11.0,11.0,81,0.00,,,0.00,Wunderground v.1.15,2013-02-25 21:20:00,
2013-02-25 15:25:00,32.3,27.1,30.03,North,5,13.0,14.0,81,0.00,,,0.00,Wunderground v.1.15,2013-02-25 21:25:00,
2013-02-25 15:35:00,32.2,27.3,30.03,North,358,13.0,14.0,82,0.00,,,0.00,Wunderground v.1.15,2013-02-25 21:35:00,
2013-02-25 15:45:00,32.3,27.4,30.03,NE,40,10.0,12.0,82,0.00,,,0.00,Wunderground v.1.15,2013-02-25 21:45:00,
2013-02-25 15:50:00,32.1,27.2,30.03,NE,37,10.0,10.0,82,0.00,,,0.00,Wunderground v.1.15,2013-02-25 21:50:00,
2013-02-25 16:00:00,31.9,27.0,30.03,NNE,25,12.0,15.0,82,0.00,,,0.00,Wunderground v.1.15,2013-02-25 22:00:00,
2013-02-25 16:10:00,31.8,27.2,30.02,NE,42,12.0,12.0,83,0.00,,,0.00,Wunderground v.1.15,2013-02-25 22:10:00,
2013-02-25 16:15:00,31.8,26.9,30.02,NNE,29,11.0,12.0,82,0.00,,,0.00,Wunderground v.1.15,2013-02-25 22:15:00,
2013-02-25 16:25:00,31.7,26.8,30.02,North,8,12.0,14.0,82,0.00,,,0.00,Wunderground v.1.15,2013-02-25 22:25:00,
2013-02-25 16:35:00,31.6,27.0,30.02,North,4,12.0,12.0,83,0.00,,,0.00,Wunderground v.1.15,2013-02-25 22:35:00,
2013-02-25 16:45:00,31.6,27.3,30.02,North,354,10.0,11.0,84,0.00,,,0.00,Wunderground v.1.15,2013-02-25 22:45:00,
2013-02-25 16:55:00,31.4,27.1,30.02,North,360,10.0,11.0,84,0.00,,,0.00,Wunderground v.1.15,2013-02-25 22:55:00,
2013-02-25 17:00:00,31.3,27.0,30.02,NNE,24,10.0,10.0,84,0.00,,,0.00,Wunderground v.1.15,2013-02-25 23:00:00,
2013-02-25 17:10:00,31.1,26.8,30.02,NNE,21,11.0,11.0,84,0.00,,,0.00,Wunderground v.1.15,2013-02-25 23:10:00,
2013-02-25 17:20:00,30.9,26.6,30.01,NNE,13,10.0,10.0,84,0.00,,,0.00,Wunderground v.1.15,2013-02-25 23:20:00,
2013-02-25 17:30:00,30.8,26.5,30.02,NE,34,9.0,9.0,84,0.00,,,0.00,Wunderground v.1.15,2013-02-25 23:30:00,
2013-02-25 17:40:00,30.7,26.7,30.01,North,10,8.0,9.0,85,0.00,,,0.00,Wunderground v.1.15,2013-02-25 23:40:00,
2013-02-25 17:50:00,30.5,26.5,30.01,North,11,9.0,10.0,85,0.00,,,0.00,Wunderground v.1.15,2013-02-25 23:50:00,
2013-02-25 18:00:00,30.3,26.6,30.01,NNE,27,9.0,9.0,86,0.00,,,0.00,Wunderground v.1.15,2013-02-26 00:00:00,
2013-02-25 18:10:00,29.9,26.2,30.01,NNE,26,11.0,11.0,86,0.00,,,0.00,Wunderground v.1.15,2013-02-26 00:10:00,
2013-02-25 18:15:00,29.8,26.4,30.01,NE,44,10.0,11.0,87,0.00,,,0.00,Wunderground v.1.15,2013-02-26 00:15:00,
2013-02-25 18:25:00,29.5,26.4,30.01,ENE,60,9.0,9.0,88,0.00,,,0.00,Wunderground v.1.15,2013-02-26 00:25:00,
2013-02-25 18:30:00,29.2,26.4,30.01,NNE,26,10.0,10.0,89,0.00,,,0.00,Wunderground v.1.15,2013-02-26 00:30:00,
2013-02-25 18:40:00,28.9,26.1,30.01,NNE,14,11.0,11.0,89,0.00,,,0.00,Wunderground v.1.15,2013-02-26 00:40:00,
2013-02-25 18:50:00,28.6,26.0,30.01,North,9,9.0,12.0,90,0.00,,,0.00,Wunderground v.1.15,2013-02-26 00:50:00,
2013-02-25 19:00:00,28.4,25.8,30.01,NNE,22,11.0,11.0,90,0.00,,,0.00,Wunderground v.1.15,2013-02-26 01:00:00,
2013-02-25 19:10:00,28.3,25.7,30.00,North,359,10.0,10.0,90,0.00,,,0.00,Wunderground v.1.15,2013-02-26 01:10:00,
2013-02-25 19:15:00,28.3,25.7,30.00,NNE,23,9.0,11.0,90,0.00,,,0.00,Wunderground v.1.15,2013-02-26 01:15:00,
2013-02-25 19:25:00,28.3,25.7,30.00,NNE,29,11.0,15.0,90,0.00,,,0.00,Wunderground v.1.15,2013-02-26 01:25:00,
2013-02-25 19:35:00,28.3,25.7,30.00,North,8,12.0,17.0,90,0.00,,,0.00,Wunderground v.1.15,2013-02-26 01:35:00,
2013-02-25 19:45:00,28.1,25.5,29.99,NNE,23,12.0,15.0,90,0.00,,,0.00,Wunderground v.1.15,2013-02-26 01:45:00,
2013-02-25 19:55:00,28.0,25.4,29.98,NNE,30,12.0,12.0,90,0.00,,,0.00,Wunderground v.1.15,2013-02-26 01:55:00,
2013-02-25 20:00:00,28.0,25.4,29.98,North,360,11.0,11.0,90,0.00,,,0.00,Wunderground v.1.15,2013-02-26 02:00:00,
2013-02-25 20:10:00,27.9,25.3,29.97,NNE,21,10.0,10.0,90,0.00,,,0.00,Wunderground v.1.15,2013-02-26 02:10:00,
2013-02-25 20:20:00,27.7,25.2,29.97,NNE,25,9.0,9.0,90,0.00,,,0.00,Wunderground v.1.15,2013-02-26 02:20:00,
2013-02-25 20:30:00,27.6,25.1,29.97,NNE,20,7.0,9.0,90,0.00,,,0.00,Wunderground v.1.15,2013-02-26 02:30:00,
2013-02-25 20:40:00,27.5,25.0,29.97,NNE,23,9.0,10.0,90,0.00,,,0.00,Wunderground v.1.15,2013-02-26 02:40:00,
2013-02-25 20:45:00,27.5,25.0,29.96,NE,43,10.0,10.0,90,0.00,,,0.00,Wunderground v.1.15,2013-02-26 02:45:00,
2013-02-25 20:55:00,27.5,25.0,29.96,NNE,15,9.0,11.0,90,0.00,,,0.00,Wunderground v.1.15,2013-02-26 02:55:00,
2013-02-25 21:00:00,27.5,25.0,29.96,NNE,26,9.0,10.0,90,0.00,,,0.00,Wunderground v.1.15,2013-02-26 03:00:00,
2013-02-25 21:10:00,27.5,25.0,29.96,NNE,14,11.0,11.0,90,0.00,,,0.00,Wunderground v.1.15,2013-02-26 03:10:00,
2013-02-25 21:20:00,27.4,24.9,29.96,NE,43,12.0,14.0,90,0.00,,,0.00,Wunderground v.1.15,2013-02-26 03:20:00,
2013-02-25 21:30:00,27.4,25.1,29.98,NE,36,13.0,13.0,91,0.00,,,0.00,Wunderground v.1.15,2013-02-26 03:30:00,
2013-02-25 21:40:00,27.5,25.0,29.98,North,356,12.0,12.0,90,0.00,,,0.00,Wunderground v.1.15,2013-02-26 03:40:00,
2013-02-25 21:50:00,27.4,25.1,29.98,NE,36,10.0,12.0,91,0.00,,,0.00,Wunderground v.1.15,2013-02-26 03:50:00,
2013-02-25 22:00:00,27.4,25.1,29.97,NE,45,12.0,12.0,91,0.00,,,0.00,Wunderground v.1.15,2013-02-26 04:00:00,
2013-02-25 22:10:00,27.3,25.0,29.98,NE,37,11.0,11.0,91,0.00,,,0.00,Wunderground v.1.15,2013-02-26 04:10:00,
2013-02-25 22:15:00,27.2,24.9,29.98,NNE,24,11.0,11.0,91,0.00,,,0.00,Wunderground v.1.15,2013-02-26 04:15:00,
2013-02-25 22:25:00,27.1,24.8,29.98,North,9,10.0,11.0,91,0.00,,,0.00,Wunderground v.1.15,2013-02-26 04:25:00,
2013-02-25 22:35:00,27.0,24.7,30.00,NE,48,9.0,11.0,91,0.00,,,0.00,Wunderground v.1.15,2013-02-26 04:35:00,
2013-02-25 22:45:00,26.9,24.9,30.00,ENE,61,7.0,9.0,92,0.00,,,0.00,Wunderground v.1.15,2013-02-26 04:45:00,
2013-02-25 22:55:00,26.7,24.7,30.00,NE,36,7.0,7.0,92,0.00,,,0.00,Wunderground v.1.15,2013-02-26 04:55:00,
2013-02-25 23:00:00,26.5,24.5,30.00,NE,46,8.0,8.0,92,0.00,,,0.00,Wunderground v.1.15,2013-02-26 05:00:00,
2013-02-25 23:05:00,26.5,24.5,30.00,NNE,28,8.0,9.0,92,0.00,,,0.00,Wunderground v.1.15,2013-02-26 05:05:00,
2013-02-25 23:10:00,26.4,24.4,30.00,NE,34,7.0,7.0,92,0.00,,,0.00,Wunderground v.1.15,2013-02-26 05:10:00,
2013-02-25 23:20:00,26.3,24.3,30.00,NE,44,7.0,8.0,92,0.00,,,0.00,Wunderground v.1.15,2013-02-26 05:20:00,
2013-02-25 23:25:00,26.1,24.1,30.00,NNE,25,8.0,8.0,92,0.00,,,0.00,Wunderground v.1.15,2013-02-26 05:25:00,
2013-02-25 23:35:00,26.1,24.4,30.00,NNE,24,9.0,10.0,93,0.00,,,0.00,Wunderground v.1.15,2013-02-26 05:35:00,
2013-02-25 23:45:00,26.0,24.3,29.99,North,352,7.0,10.0,93,0.00,,,0.00,Wunderground v.1.15,2013-02-26 05:45:00,
2013-02-25 23:55:00,25.9,24.2,29.98,North,6,9.0,9.0,93,0.00,,,0.00,Wunderground v.1.15,2013-02-26 05:55:00,